{"data":{"norad_id":62312,"epoch":"2026-05-24T20:18:32.889600Z","epoch_age_seconds":84247,"freshness":"FRESH","line1":"1 62312U 24239M   26144.84621400  .00026330  00000+0  78709-3 0  9993","line2":"2 62312  53.1600 200.1912 0000774  97.7064 262.4027 15.34423448 81041","mean_motion":15.34423448,"eccentricity":7.74e-5,"inclination_deg":53.16,"raan_deg":200.1912,"arg_perigee_deg":97.7064,"mean_anomaly_deg":262.4027,"bstar":0.00078709,"rev_number":8104,"period_min":93.846323964674,"perigee_km":462.10407305669,"apogee_km":463.16302433763,"semimajor_km":6840.7705486972,"source":"CELESTRAK","updated_at":"2026-05-25T13:38:19.649398Z"}}